Regional Weather Roundup
Issued by NWS New Orleans/Baton Rouge, LA

Home | Current Version | Previous Version | Text Only | Print | Product List | Glossary Off
Versions: 1 2 3 4 5 6 7 8 9 10 11 12 13 14 15 16 17 18 19 20 21 22 23 24 25 26 27 28 29 30 31 32 33 34 35 36 37 38 39 40 41 42 43 44 45 46 47 48 49 50

744
ASUS44 KLIX 211501
RWRLIX
NEW ORLEANS REGIONAL WEATHER ROUNDUP
NATIONAL WEATHER SERVICE NEW ORLEANS LA
900 AM CST SUN DEC 21 2014

NOTE: "FAIR" INDICATES FEW OR NO CLOUDS BELOW 12,000 FEET WITH NO
      SIGNIFICANT WEATHER AND/OR OBSTRUCTIONS TO VISIBILITY.
      SKY/WX - SKY CONDITION AND SIGNIFICANT WEATHER.
      TMP - AIR TEMPERATURE.     DP    - DEWPOINT TEMPERATURE.
      RH  - RELATIVE HUMIDITY.   PRES  - PRESSURE.
      HI  - HEAT INDEX.          WCI   - WIND CHILL INDEX.

*  THESE STATIONS ARE NOT NWS OR FAA STATIONS AND ARE NOT UNDER
   NWS QUALITY CONTROL.

LAZ038-040-048-061>063-065>067-069-211600-
SOUTHEAST LOUISIANA

CITY           SKY/WX    TMP DP  RH WIND       PRES   REMARKS
N.O. AUDUBON     N/A     52  50  93 MISG        N/A
N.O. INTL ARPT CLOUDY    54  48  80 E7        30.11S
N.O. LAKEFRONT CLOUDY    54  48  80 E7        30.12R
N.O. DOWNTOWN* CLOUDY    52  45  76 NE3       30.12S
SLIDELL        CLOUDY    51  47  86 NE5       30.11S
BATON ROUGE    PTSUNNY   48  44  86 VRB3      30.13R
BOOTHVILLE     CLOUDY    56  53  90 NE6       30.11R
BELLE CHASSE   CLOUDY    54  50  86 E7        30.11R
BOGALUSA*        N/A     48  44  84 N3        30.14R
GALLIANO*      NOT AVBL
NEW ROADS*     NOT AVBL
GONZALES*      NOT AVBL
HAMMOND*       NOT AVBL
HOUMA*         NOT AVBL
PORT FOURCHON* NOT AVBL

$$

MSZ070-080>082-211600-
SOUTHERN MISSISSIPPI

CITY           SKY/WX    TMP DP  RH WIND       PRES   REMARKS
MCCOMB         PTSUNNY   45  41  86 NE5       30.12F
GULFPORT       CLOUDY    52  48  86 NE5       30.11F
BILOXI         NOT AVBL
PASCAGOULA     CLOUDY    53  49  86 VRB6      30.12R

$$

COASTAL OBSERVATIONS
LAKE AND NEARSHORE STATIONS

STATION/POSITION TIME  TEMP    WIND        PRES    WAVE
                       AIR SEA DIR/SP/G            HT/PER
                 (UTC) (F)     (DEG/KT/KT) (MB)    (FT/S)
PASCAGOULA       1400   52      20/  4/  6 1018.9
WAVELAND YACHT   1400   51      70/  6/  7 1018.7
GRAND ISLE       1400   55 60   60/  7/ 10 1019.7
SOUTHWEST PASS   1400   58                 1019.1
NEW CANAL        1400   53 55   70/ 10/ 11 1019.6
SHELL BEACH      1400   52 56   40/ 12/ 13 1019.0

OFFSHORE STATIONS

STATION/POSITION TIME  TEMP    WIND        PRES    WAVE
                       AIR SEA DIR/SP/G            HT/PER
                 (UTC) (F)     (DEG/KT/KT) (MB)    (FT/S)
64 S DAUPHIN ISL 1500   64 74   40/ 12/ 16 1018.2    4/ 6

$$




USA.gov is the U.S. government's official web portal to all federal, state and local government web resources and services.